CW6158 Weather Reports


time (UTC)temp
C
wind
direction
speed
KPH
gust
KPH
rain 1hr
cm
rain 24hr
cm
rain mn
cm
humidity
%
barometer
mb
20260504050511 10 330 0.0 12.9 0.00 0.00 0.00 73 1017.7
20260504043510 8 136 0.0 1.6 0.00 0.00 0.00 79 1017.6
20260504040510 8 136 0.0 1.6 0.00 0.00 0.00 79 1017.5
20260504033510 9 129 0.0 1.6 0.00 0.00 0.00 78 1017.4
20260504023509 10 132 0.0 1.6 0.00 0.00 0.00 72 1017.3
20260504020509 10 144 0.0 1.6 0.00 0.00 0.00 69 1017.3
20260504013509 10 105 0.0 1.6 0.00 0.00 0.00 66 1017.0
20260504010509 10 105 0.0 1.6 0.00 0.00 0.00 62 1016.8
20260504000509 11 105 0.0 0.0 0.00 0.00 0.00 54 1016.1
20260503233509 12 105 0.0 0.0 0.00 0.00 0.00 51 1015.9
20260503230509 14 105 0.0 3.2 0.00 0.00 0.00 50 1015.9
20260503220508 20 215 0.0 3.2 0.00 0.00 0.00 35 1016.0
20260503213509 19 325 0.0 9.7 0.00 0.00 0.00 35 1015.9
20260503200509 18 122 1.6 14.5 0.00 0.00 0.00 35 1016.0
20260503193508 19 302 3.2 12.9 0.00 0.00 0.00 39 1016.6
20260503190508 17 299 1.6 12.9 0.00 0.00 0.00 39 1016.9
20260503180508 17 201 0.0 14.5 0.00 0.00 0.00 39 1017.4
20260503173507 16 243 3.2 19.3 0.00 0.00 0.00 45 1017.7
20260503170507 16 233 1.6 17.7 0.00 0.00 0.00 40 1017.9
20260503150506 13 18 0.0 19.3 0.00 0.00 0.00 47 1018.2
20260503130505 11 267 6.4 19.3 0.00 0.00 0.00 57 1018.0
20260503110504 7 335 0.0 12.9 0.00 0.00 0.00 71 1016.9
20260503090503 7 139 0.0 0.0 0.00 0.00 0.00 74 1014.9
20260503080503 8 324 0.0 8.0 0.00 0.00 0.00 68 1014.4